#timestamp,LO_Frequency,Hit,StdDev 
1665594015.4,286046998.9,N
1665594035.3,286046999.1,N
1665594055.1,286047002.8,N
1665594075.9,286047000.0,N
1665594095.7,286047000.2,N
1665594115.5,286047000.3,N
1665594135.4,286047000.6,N
1665594155.2,286046996.5,N
1665594175.0,286046999.1,N
1665594175.9,286046999.1,N
1665594195.8,286046999.4,N
1665594215.6,286046998.8,N
1665594235.5,286046998.4,N
1665594255.3,286046999.9,N
1665594275.1,286046999.9,N
1665594295.9,286047000.1,N
1665594315.7,286047002.3,N
1665594335.5,286046999.9,N
1665594355.4,286047002.2,N
1665594375.2,286047002.8,N
1665594395.1,286047002.1,N
1665594396.0,286047002.1,N
1665594415.8,286047000.0,N
1665594435.6,286047000.8,N
1665594455.5,286046999.0,N
1665594475.3,286046999.3,N
1665594495.1,286046998.4,N
1665594515.9,286046998.1,N
1665594535.7,286047000.0,N
1665594555.6,286047000.0,N
1665594575.4,286047000.0,N
1665594595.2,286047001.0,N
1665594615.1,286046999.9,N
1665594616.0,286046999.9,N
1665594635.8,286047002.8,N
1665594655.6,286047002.5,N
1665594675.5,286047002.0,N
1665594695.3,286047000.0,N
1665594715.2,286047000.9,N
1665594735.9,286046998.2,N
1665594755.7,286046999.2,N
1665594775.6,286046998.5,N
1665594795.4,286046996.6,N
1665594815.2,286046998.9,N
1665594835.1,286046998.5,N
1665594836.0,286046998.5,N
1665594855.8,286047001.0,N
1665594875.7,286047001.0,N
1665594895.5,286047000.2,N
1665594915.3,286047002.3,N
1665594935.2,286047002.0,N
1665594955.0,286047004.3,N
1665594955.9,286047004.3,N
1665594975.8,286047004.0,N
1665594995.6,286047001.5,N
1665595015.4,286047001.9,N
1665595035.3,286047001.4,N
1665595055.1,286046999.8,N
1665595075.9,286046998.8,N
1665595095.7,286046998.2,N
1665595115.5,286047000.6,N
1665595135.4,286047002.5,N
1665595155.2,286047002.8,N
1665595175.0,286047001.5,N
1665595175.9,286047001.5,N
1665595195.8,286047002.7,N
1665595215.6,286047001.4,N
1665595235.5,286047004.1,N
1665595255.3,286047003.6,N
1665595275.1,286047003.1,N
1665595295.9,286047004.1,N
1665595315.7,286047003.3,N
1665595335.5,286047003.3,N
1665595355.4,286047004.2,N
1665595375.2,286047003.8,N
1665595395.0,286047003.2,N
1665595396.0,286047003.2,N
1665595415.8,286047003.2,N
1665595435.6,286047004.3,N
1665595455.5,286047004.1,N
1665595475.3,286047004.1,N
1665595495.1,286047004.4,N
1665595515.9,286047004.1,N
1665595535.7,286047003.6,N
1665595555.6,286047003.7,N
1665595575.4,286047005.3,Y
1665595595.2,286047000.4,P
1665595615.1,286046998.2,N
1665595616.0,286046998.2,N
1665595635.8,286047000.8,N
1665595655.6,286046999.1,N
1665595675.5,286046998.8,N
1665595695.3,286046999.3,N
1665595715.2,286046998.2,N
1665595735.9,286046998.5,N
1665595755.7,286046998.4,N
1665595775.6,286046998.2,N
1665595795.4,286046998.2,N
1665595815.3,286046998.2,N
1665595835.1,286047001.2,N
1665595836.0,286047001.2,N
1665595855.8,286046998.6,N
1665595875.7,286047000.5,N
1665595895.5,286047001.1,N
1665595915.3,286046999.4,N
1665595935.2,286046998.8,N
1665595955.0,286046999.5,N
1665595955.9,286046999.5,N
1665595975.8,286046999.4,N
1665595995.6,286046999.1,N
1665596015.4,286046997.7,N
1665596035.3,286046995.3,Y
1665596055.1,286046995.0,P
1665596075.9,286046997.4,N
1665596095.7,286046997.3,N
1665596115.5,286046997.7,N
1665596135.4,286046997.5,N
1665596155.2,286046995.3,Y
1665596175.0,286046999.1,P
1665596175.9,286046999.1,N
1665596195.8,286047001.1,N
1665596215.6,286046998.3,N
1665596235.5,286047000.5,N
1665596255.3,286047001.2,N
1665596275.1,286046998.5,N
1665596295.9,286046998.8,N
1665596315.7,286046999.4,N
1665596335.5,286046998.9,N
1665596355.4,286046998.5,N
1665596375.2,286046999.3,N
1665596395.1,286046999.1,N
1665596396.0,286046999.1,N
1665596415.8,286046999.0,N
1665596435.6,286046998.8,N
1665596455.5,286046996.9,Y
1665596475.3,286046998.3,P
1665596495.1,286046998.4,P
1665596515.9,286046998.4,P
1665596535.7,286046998.1,Y
1665596555.6,286047000.0,P
1665596575.4,286047000.5,N
1665596595.2,286046999.4,N
1665596615.1,286046998.9,N
1665596616.0,286046998.9,N
1665596635.8,286046998.8,N
1665596655.7,286046998.6,N
1665596675.5,286047000.7,N
1665596695.3,286047000.9,N
1665596715.2,286047000.5,N
1665596735.0,286047000.9,N
1665596735.9,286047000.9,N
1665596755.7,286047001.2,N
1665596775.6,286046998.4,N
1665596795.4,286046998.7,N
1665596815.3,286046998.5,N
1665596835.1,286046998.3,N
1665596836.0,286046998.3,N
1665596855.8,286047000.7,N
1665596875.7,286046998.1,N
1665596895.5,286047000.7,N
1665596915.3,286047000.8,N
1665596935.2,286047001.0,N
1665596955.0,286047000.9,N
1665596955.9,286047000.9,N
1665596975.8,286047001.2,N
1665596995.6,286047001.2,N
1665597015.4,286047000.7,N
1665597035.3,286046998.1,N
1665597055.1,286046999.2,N
1665597075.8,286046996.9,N
1665597095.7,286046996.8,N
1665597115.5,286046996.6,N
1665597135.4,286046999.3,N
1665597155.2,286046999.2,N
1665597175.0,286046996.8,N
1665597175.9,286046996.8,N
1665597195.8,286046997.0,N
1665597215.6,286046996.5,N
1665597235.4,286046997.0,N
1665597255.3,286046996.6,N
1665597275.1,286046998.9,N
1665597295.9,286046998.6,N
1665597315.7,286046999.2,N
1665597335.5,286046999.6,N
1665597355.4,286046997.0,N
1665597375.2,286046996.5,N
1665597395.0,286046999.2,N
1665597396.0,286046999.2,N
1665597415.8,286046999.4,N
1665597435.6,286046999.6,N
1665597455.5,286046996.5,N
1665597475.3,286046997.7,N
1665597495.1,286046997.9,N
1665597515.9,286046997.5,N
1665597535.7,286046997.2,N
1665597555.6,286046996.8,N
1665597575.4,286046997.1,N
1665597595.2,286046997.2,N
